FLOCK 2'-5

Last updated on Aug. 2, 2016, 5:39 p.m. UTC

1 41616U 16040T   16215.41867132  .00001550  00000-0  75174-4 0  9995
2 41616  97.5061 274.3687 0013294 114.4582 245.8041 15.19962141  6198
UTC
Height (km)
Latitude
Longitude
Inclination
Orbital Period
UTC large
Height (km)
Speed (km/s)
/
Latitude / Longitude
Inclination (degrees)
Orbital Period (minutes)
Azimuth
Elevation
Range (km)
Doppler Factor
iOS Compass Heading
iOS Angle